Volver al catálogo

STARLINK-36813

ActivoComunicacionesSSO
NORAD 67892·PAYLOAD·🇺🇸 United States

Lanzado Feb 21, 2026 desde Vandenberg Space Force Base

Loading…

Próximos Pases (próximas 24 horas)

TLE

ActualizadoSource: CelesTrak SupGP

Época: Sep 15, 2026, 03:32 UTC

1 67892C 26035P   26258.14770833  .00092332  00000+0  28664-2 0  2588
2 67892  97.2848 190.1432 0001708  99.8737  28.6241 15.33389484    13

Sigue STARLINK-36813 en tiempo real con AllMySat

Download on the App Store